Погода в Васильково

Россия / Кировская область     57°43′49″N   48°42′53″E
темп.,
°C
ветер,
м/с
пор.,
м/с
влажн.,
%
обл.,
%
осадки,
мм/ч
давл.,
гПа
погр.,
м
12 апреля, пн
пн1200:00+2ююз23100100 0.0 1035131
03:00+2з11100100 0.0 103754
06:00+2ссв2399100 0.0 1038152
09:00+6всв128828 0.0 1039260
12:00+10юв117183 0.0 1039712
15:00+10юв226895 0.0 1039835
18:00+6вюв3589100 0.0 1039159
21:00+3юв2693100 0.0 1039140
13 апреля, вт
вт1300:00+3юв2796100 0.0 1039149
03:00+2юв2895100 0.0 1038169
06:00+4юв31092100 0.0 1037258
09:00+8ююв4879100 0.0 1036367
12:00+12ю4775100 0.0 1034490
15:00+13ю478094 0.0 1032567
18:00+12ююв399174 0.0 1031270
21:00+9ю399398 0.0 1031175
14 апреля, ср
ср1400:00+8ю3992100 0.0 1030166
03:00+6ююз249198 0.0 103065
06:00+6ю248779 0.0 103086
09:00+12ююз356234 0.0 1029333
12:00+16ююз454738 0.0 1027861
15:00+17ююз464225 0.0 10261113
18:00+13ю25606 0.0 102573
21:00+9ю357020 0.0 102589
15 апреля, чт
чт1500:00+7ююз24745 0.0 102446
03:00+6ююз228380 0.0 102332
06:00+6ююз238432 0.0 102259
09:00+12ююз24635 0.0 1021358
12:00+16юз23475 0.0 10201065
15:00+18зюз233989 0.0 10181605
18:00+14юз11545 0.0 101710
21:00+11юз11645 0.0 101710
16 апреля, пт
пт1600:00+8ссз227463 0.0 101615
03:00+6с239056 0.0 101649
06:00+5с369372 0.0 1016187
09:00+8с4578100 0.0 1015541
12:00+5с6987100 0.1 1017599
15:00+5с4982100 1.6 1018969
18:00+6с510542 0.1 10181098
21:00+3ссз411670 0.1 1020450